RYR97HB EGPH-LGRP

Flight info

Callsign RYR97HB
Flight time N/A
Altitude 25000
Route TLA6D TLA Y96 OTBUN/N0442F350 DCT ERKIT N110 DOLAS DCT NAVPI DCT TIVUN DCT ESAMA DCT OSBIT DCT TENLO DCT LAMSI DCT SITNI DCT SASAL DCT BABIT/N0440F370 DCT NISVA DCT NIKTI DCT MES UN139 LURUS UL995 CODIC CODIC1K
Aircraft B738/M-SDE2E3FGHIRWXY/LB1

Departure

Time 2026-04-23 09:09
Airport Edinburgh Airport (EGPH)

Arrival

Time N/A
Airport Rhodes International Airport "Diagoras" (LGRP)
Time Latitude Longitude Altitude Speed Heading
2026-04-23 08:54 55.95000 -3.36252 141 ft 0 kts 116°
2026-04-23 08:58 55.95002 -3.36258 141 ft 2 kts 116°
2026-04-23 08:59 55.95006 -3.36275 141 ft 1 kts 116°
2026-04-23 08:59 55.95012 -3.36298 141 ft 2 kts 107°
2026-04-23 08:59 55.95015 -3.36323 141 ft 2 kts 98°
2026-04-23 08:59 55.95016 -3.36350 141 ft 2 kts 88°
2026-04-23 09:00 55.95015 -3.36376 141 ft 2 kts 79°
2026-04-23 09:00 55.95011 -3.36402 141 ft 2 kts 70°
2026-04-23 09:00 55.95005 -3.36426 141 ft 1 kts 60°
2026-04-23 09:00 55.95001 -3.36435 141 ft 0 kts 57°
2026-04-23 09:01 55.95001 -3.36436 141 ft 0 kts 57°
2026-04-23 09:02 55.95001 -3.36435 141 ft 0 kts 57°
2026-04-23 09:02 55.95006 -3.36423 141 ft 2 kts 57°
2026-04-23 09:02 55.95027 -3.36392 141 ft 4 kts 19°
2026-04-23 09:03 55.95055 -3.36402 141 ft 4 kts 322°
2026-04-23 09:03 55.95065 -3.36480 141 ft 9 kts 252°
2026-04-23 09:03 55.95025 -3.36600 141 ft 13 kts 239°
2026-04-23 09:03 55.94968 -3.36768 141 ft 17 kts 239°
2026-04-23 09:04 55.94906 -3.36952 141 ft 16 kts 239°
2026-04-23 09:04 55.94850 -3.37116 141 ft 14 kts 239°
2026-04-23 09:04 55.94801 -3.37264 141 ft 13 kts 239°
2026-04-23 09:04 55.94756 -3.37397 141 ft 11 kts 239°
2026-04-23 09:05 55.94716 -3.37515 141 ft 10 kts 239°
2026-04-23 09:05 55.94679 -3.37622 141 ft 10 kts 239°
2026-04-23 09:05 55.94637 -3.37746 141 ft 12 kts 238°
2026-04-23 09:05 55.94588 -3.37886 141 ft 13 kts 239°
2026-04-23 09:06 55.94537 -3.38040 141 ft 15 kts 239°
2026-04-23 09:06 55.94482 -3.38199 141 ft 14 kts 239°
2026-04-23 09:06 55.94433 -3.38343 141 ft 12 kts 239°
2026-04-23 09:06 55.94388 -3.38474 141 ft 12 kts 239°
2026-04-23 09:07 55.94343 -3.38607 140 ft 11 kts 239°
2026-04-23 09:07 55.94303 -3.38727 141 ft 10 kts 239°
2026-04-23 09:07 55.94281 -3.38802 140 ft 5 kts 259°
2026-04-23 09:07 55.94295 -3.38856 141 ft 5 kts 317°
2026-04-23 09:08 55.94345 -3.38915 141 ft 11 kts 329°
2026-04-23 09:08 55.94400 -3.38953 141 ft 7 kts
2026-04-23 09:08 55.94435 -3.38903 141 ft 5 kts 56°
2026-04-23 09:08 55.94471 -3.38801 141 ft 28 kts 59°
2026-04-23 09:09 55.94701 -3.38118 141 ft 99 kts 59°
2026-04-23 09:09 55.95176 -3.36722 143 ft 158 kts 58°
2026-04-23 09:09 55.95731 -3.35066 875 ft 153 kts 60°
2026-04-23 09:09 55.96407 -3.33512 1397 ft 170 kts 44°
2026-04-23 09:10 55.97348 -3.32110 1882 ft 183 kts 44°
2026-04-23 09:10 55.99382 -3.28820 2668 ft 215 kts 45°
2026-04-23 09:10 56.00531 -3.26946 3122 ft 231 kts 44°
2026-04-23 09:11 56.01751 -3.24972 3627 ft 245 kts 44°